Halifax, Nova Scotia

8:37 AM ADT on September 24, 2017 (GMT -0300)
Halifax International Airport

Weather History for CYHZ - February, 2014

Change the Weather History Date:

Sunday, February 16, 2014

  Actual Average Record
Temperature  
Mean Temperature 25 °F -  
Max Temperature 33 °F 33 °F 50 °F (2016)
Min Temperature 17 °F 17 °F -11 °F (2003)
Degree Days  
Heating Degree Days 40    
Moisture  
Dew Point 22 °F    
Average Humidity 88    
Maximum Humidity 100    
Minimum Humidity 60    
Precipitation  
Precipitation 0.55 in 0.16 in - ()
Sea Level Pressure  
Sea Level Pressure 29.05 in    
Wind  
Wind Speed 18 mph ()    
Max Wind Speed 38 mph    
Max Gust Speed 48 mph    
Visibility 3.1 miles    
Events Fog , Rain , Snow    
Averages and records for this station are not official NWS values.
T = Trace of Precipitation, MM = Missing Value Source: Averaged Metar Reports

Daily Weather History Graph

Daily Weather History Graph

Search for Another Location

Airport or City:

Trip Planner

Search our weather history database for the weather conditions in past years. The results will help you decide how hot, cold, wet, or windy it might be!

Date:

Astronomy

Feb. 16, 2014 Rise Set
Actual Time 7:13 AM AST 5:43 PM AST
Civil Twilight 6:43 AM AST 6:13 PM AST
Nautical Twilight 6:08 AM AST 6:47 PM AST
Astronomical Twilight 5:35 AM AST 7:21 PM AST
Moon 7:43 PM AST (2/16) 7:34 AM AST (2/16)
Length of Visible Light 11h 30m
Length of Day
10h 30m
Full, 97% of the Moon is Illuminated
Feb 16
Full
Feb 22
Last Quarter
Mar 1
New
Mar 8
First Quarter
Mar 16
Full

Hourly Weather History & Observations

Time (AST) Temp. Windchill Dew Point Humidity Pressure Visibility Wind Dir Wind Speed Gust Speed Precip Events Conditions
12:00 AM 26.6 °F 13.4 °F 23.0 °F 86% 29.54 in 2.0 mi East 18.4 mph 28.8 mph N/A Snow Light Snow
12:48 AM 26.6 °F 14.3 °F 23.0 °F 86% 29.42 in 4.0 mi ENE 16.1 mph 25.3 mph N/A Snow Light Snow
1:00 AM 26.6 °F 13.8 °F 23.0 °F 86% 29.37 in 3.0 mi ENE 17.3 mph 26.5 mph N/A Snow Light Snow
2:00 AM 27 °F - 25 °F 87% 29.26 in 2 mi ENE 18.4 mph - -   Ice Pellets
2:00 AM 26.6 °F 13.4 °F 24.8 °F 93% 29.26 in 2.0 mi ENE 18.4 mph 27.6 mph N/A Snow Light Snow
2:18 AM 26.6 °F 14.3 °F 24.8 °F 93% 29.21 in 1.5 mi ENE 16.1 mph 26.5 mph N/A Rain Light Freezing Rain
2:53 AM 28.4 °F 15.8 °F 26.6 °F 93% 29.11 in 2.0 mi East 18.4 mph 33.4 mph N/A Rain Light Freezing Rain
3:00 AM 28.4 °F 15.4 °F 26.6 °F 93% 29.09 in 2.0 mi ENE 19.6 mph 33.4 mph N/A Rain Light Freezing Rain
3:40 AM 30.2 °F 16.8 °F 28.4 °F 93% 29.02 in 4.0 mi East 23.0 mph 31.1 mph N/A Rain Light Freezing Rain
4:00 AM 32.0 °F 19.8 °F 30.2 °F 93% 28.97 in 4.0 mi East 20.7 mph 27.6 mph N/A Rain Light Freezing Rain
4:16 AM 32.0 °F 19.5 °F 30.2 °F 93% 28.94 in 4.0 mi East 21.9 mph 34.5 mph N/A Rain Light Freezing Rain
4:41 AM 32.0 °F 20.5 °F 30.2 °F 93% 28.88 in 4.0 mi East 18.4 mph 31.1 mph N/A Rain Light Rain
5:00 AM 32.0 °F 19.8 °F 32.0 °F 100% 28.87 in 4.0 mi East 20.7 mph 33.4 mph N/A Rain Light Rain
5:07 AM 33.8 °F 23.9 °F 32.0 °F 93% 28.88 in 3.0 mi East 15.0 mph 32.2 mph N/A Rain Rain
5:29 AM 33.8 °F 24.8 °F 32.0 °F 93% 28.87 in 4.0 mi East 12.7 mph 24.2 mph N/A Rain Light Rain
6:00 AM 33.8 °F 25.3 °F 32.0 °F 93% 28.81 in 5.0 mi NE 11.5 mph - N/A   Overcast
6:31 AM 33.8 °F 27.7 °F 32.0 °F 93% 28.77 in 4.0 mi NE 6.9 mph - N/A Rain Light Rain
7:00 AM 32.0 °F 23.6 °F 32.0 °F 100% 28.74 in 1.8 mi North 10.4 mph - N/A Rain Light Rain
7:14 AM 32.0 °F 24.8 °F 32.0 °F 100% 28.73 in 0.5 mi NNW 8.1 mph - N/A Fog , Rain Light Rain
7:22 AM 32.0 °F 24.2 °F 32.0 °F 100% 28.72 in 0.5 mi North 9.2 mph - N/A Fog , Rain Light Freezing Rain
7:50 AM 32.0 °F 23.6 °F 30.2 °F 93% 28.70 in 0.1 mi North 10.4 mph - N/A Fog Light Freezing Drizzle
8:00 AM 31 °F - 31 °F 100% 28.71 in 0 mi North 9.2 mph - - Rain Light Freezing Drizzle
8:00 AM 32.0 °F 23.6 °F 30.2 °F 93% 28.70 in 0.1 mi NNW 10.4 mph - N/A Fog Light Freezing Drizzle
9:00 AM 30.2 °F 17.4 °F 28.4 °F 93% 28.69 in 0.8 mi NNW 20.7 mph - N/A   Light Freezing Drizzle
9:02 AM 28.4 °F 15.4 °F 28.4 °F 100% 28.69 in 1.5 mi NNW 19.6 mph - N/A Rain Light Freezing Rain
9:11 AM 28.4 °F 14.1 °F 28.4 °F 100% 28.69 in 1.5 mi NW 24.2 mph - N/A Rain Light Freezing Rain
9:21 AM 26.6 °F 12.4 °F 26.6 °F 100% 28.70 in 1.8 mi NNW 21.9 mph 31.1 mph N/A Rain Light Freezing Drizzle
9:41 AM 26.6 °F 10.8 °F 24.8 °F 93% 28.70 in 1.8 mi NW 27.6 mph 35.7 mph N/A Snow Light Ice Pellets
10:00 AM 24.8 °F 7.9 °F 23.0 °F 93% 28.70 in 1.8 mi NW 29.9 mph - N/A Snow Light Snow
10:08 AM 24.8 °F 7.9 °F 23.0 °F 93% 28.71 in 1.5 mi NW 29.9 mph 36.8 mph N/A Snow Light Snow
10:50 AM 23.0 °F 4.9 °F 21.2 °F 93% 28.77 in 1.0 mi NW 32.2 mph 47.2 mph N/A Snow Light Snow
11:00 AM 21.2 °F 1.9 °F 19.4 °F 93% 28.79 in 1.0 mi NW 34.5 mph 46.0 mph N/A Snow Light Snow
11:19 AM 21.2 °F 3.0 °F 17.6 °F 86% 28.83 in 2.0 mi WNW 29.9 mph 41.4 mph N/A Snow Light Snow
11:43 AM 21.2 °F 3.9 °F 17.6 °F 86% 28.90 in 8.0 mi WNW 26.5 mph 48.3 mph N/A Snow Light Snow
12:00 PM 21.2 °F 3.9 °F 17.6 °F 86% 28.94 in 1.5 mi WNW 26.5 mph 41.4 mph N/A Snow Light Snow
12:07 PM 21.2 °F 1.2 °F 17.6 °F 86% 28.95 in 0.8 mi WNW 38.0 mph 47.2 mph N/A Snow Light Snow
12:14 PM 21.2 °F 2.4 °F 17.6 °F 86% 28.96 in 0.4 mi WNW 32.2 mph 47.2 mph N/A Snow Light Snow
12:24 PM 21.2 °F 3.3 °F 17.6 °F 86% 28.98 in 0.1 mi WNW 28.8 mph 43.7 mph N/A Snow Light Snow
1:00 PM 19.4 °F 1.1 °F 17.6 °F 93% 29.04 in 0.2 mi WNW 27.6 mph 47.2 mph N/A Snow Light Snow
1:31 PM 19.4 °F -0.0 °F 15.8 °F 86% 29.10 in 1.2 mi WNW 32.2 mph 47.2 mph N/A Snow Light Snow
2:00 PM 20 °F - 15 °F 74% 29.17 in 1 mi WNW 27.6 mph - - Snow Light Snow
2:00 PM 19.4 °F 1.8 °F 15.8 °F 86% 29.17 in 1.5 mi WNW 25.3 mph 36.8 mph N/A Snow Light Snow
3:00 PM 21.2 °F 4.5 °F 14.0 °F 74% 29.24 in 2.0 mi West 24.2 mph 36.8 mph N/A Snow Light Snow
4:00 PM 21.2 °F 6.0 °F 15.8 °F 80% 29.31 in 3.0 mi West 19.6 mph 28.8 mph N/A Snow Light Snow
5:00 PM 21.2 °F 5.2 °F 15.8 °F 80% 29.35 in 3.0 mi WNW 21.9 mph 34.5 mph N/A Snow Light Snow
6:00 PM 21.2 °F 7.8 °F 15.8 °F 80% 29.40 in 3.0 mi West 15.0 mph 24.2 mph N/A Snow Light Snow
7:00 PM 19.4 °F 2.8 °F 14.0 °F 80% 29.47 in 3.0 mi WNW 21.9 mph 29.9 mph N/A Snow Light Snow
8:00 PM 19 °F - 11 °F 60% 29.52 in 3 mi West 21.9 mph - - Snow Light Snow
8:00 PM 19.4 °F 3.2 °F 10.4 °F 68% 29.52 in 3.0 mi West 20.7 mph 35.7 mph N/A Snow Light Snow
8:12 PM 19.4 °F 2.8 °F 10.4 °F 68% 29.53 in 10.0 mi West 21.9 mph 33.4 mph N/A   Overcast
8:40 PM 19.4 °F 4.1 °F 12.2 °F 74% 29.55 in 10.0 mi West 18.4 mph 26.5 mph N/A Snow Light Snow Showers
9:00 PM 17.6 °F 0.1 °F 10.4 °F 73% 29.56 in 10.0 mi West 23.0 mph 29.9 mph N/A Snow Light Snow Showers
10:00 PM 17.6 °F 1.3 °F 10.4 °F 73% 29.59 in 15.0 mi West 19.6 mph - N/A Snow Light Snow Showers
11:00 PM 17.6 °F 4.3 °F 10.4 °F 73% 29.60 in 15.0 mi West 12.7 mph 18.4 mph N/A Snow Light Snow Showers